Regional Weather Roundup
Issued by NWS State College, PA

Home | Current Version | Previous Version | Graphics & Text | Print | Product List | Glossary On
Versions: 1 2 3 4 5 6 7 8 9 10 11 12 13 14 15 16 17 18 19 20 21 22 23 24 25 26 27 28 29 30 31 32 33 34 35 36 37 38 39 40 41 42 43 44 45 46 47 48 49 50
000
ASUS41 KCTP 230103
RWRCTP

REGIONAL WEATHER ROUNDUP
NATIONAL WEATHER SERVICE STATE COLLEGE PA
900 PM EDT FRI AUG 22 2014

Note: "fair" indicates few or no clouds below 12,000 feet with no
significant weather and/or obstructions to visibility.

* = STATION THAT DOES NOT REPORT PRECIPITATION /E.G. RAIN...SNOW...ETC/
    THUNDER OR FOG.

PAZ002>004-007>009-013>016-020>023-029>032-230200-
WESTERN PENNSYLVANIA

CITY           SKY/WX    TMP DP  RH WIND       PRES   REMARKS
ERIE           CLEAR     72  66  81 NE5       29.99R
MEADVILLE      CLEAR     70  66  87 N7        30.01R
FRANKLIN*      PTCLDY    70  64  83 N6        30.02R
NEW CASTLE     NOT AVBL
BEAVER COUNTY  MOCLDY    72  68  88 S3        29.98R
BUTLER*        CLOUDY    73  70  88 E6        30.00R
PITTSBURGH INT TSTM      74  72  93 W5        29.97R
PITTSBURGH     CLOUDY    75  71  87 S5        29.97R
INDIANA*       CLOUDY    72  70  94 CALM      30.03R FOG
LATROBE        MOCLDY    75  72  88 CALM      29.99R
WASHINGTON CO* PTCLDY    70  68  94 CALM      29.98F
$$

PAZ004>006-010>012-017>019-024>028-033>037-041-042-045-046-049>053-230200-
CENTRAL PENNSYLVANIA

CITY           SKY/WX    TMP DP  RH WIND       PRES   REMARKS
BRADFORD       MOCLDY    69  65  86 CALM      30.03R
DUBOIS         CLOUDY    70  70 100 CALM      30.02R FOG
CLEARFIELD     LGT RAIN  70  68  93 CALM      30.01R
JOHNSTOWN      PTCLDY    68  65  90 S8        30.03R
ALTOONA        PTCLDY    69  68  96 SW3       30.02R FOG
STATE COLLEGE  MOCLDY    70  66  88 CALM      30.01R
WILLIAMSPORT   CLOUDY    72  67  84 E7        29.97S
SELINSGROVE    CLOUDY    74  67  78 S5        30.00R
FT INDIANTOWN  CLOUDY    73  70  89 E6        30.01R
CAPITAL CITY   CLOUDY    74  67  78 S7        29.99R
HARRISBURG     LGT RAIN  75  65  70 SE13      29.99R
YORK           MOCLDY    72  68  87 SE3       30.00R
$$

PAZ038>040-043-044-047-048-054-055-060>062-067>071-230200-
EASTERN PENNSYLVANIA

CITY           SKY/WX    TMP DP  RH WIND       PRES   REMARKS
SCRANTON       CLOUDY    70  63  78 SE10      30.03R
MOUNT POCONO   LGT RAIN  63  61  93 E8        30.09R FOG
ALLENTOWN      CLOUDY    72  63  73 E6        30.04R
QUAKERTOWN*    CLOUDY    70  64  83 MISG      30.05R
READING        CLOUDY    74  65  73 SE5       30.01R
LANCASTER      CLOUDY    72  66  81 E6        30.01R
COATESVILLE    MOCLDY    72  72 100 SE8       30.04R
POTTSTOWN      CLOUDY    71  64  78 CALM      30.04R
BLUE BELL      CLOUDY    72  63  73 E5        30.03R
DOYLESTOWN     CLOUDY    69  62  78 CALM      30.03R
WILLOW GROVE   NOT AVBL
NORTH PHILA    MOCLDY    72  61  68 E10       30.05R
PHILADELPHIA   MOCLDY    72  63  73 E10       30.03R
$$



USA.gov is the U.S. government's official web portal to all federal, state and local government web resources and services.